This is the latest recevied weather packets stored in our database for station/object GM0VGI-13. If no packets are shown the sender has not sent any weather packets the latest 10 day(s).
| Time | Temp. | Humidity | Pressure | Rain* | Wind** | Luminosity | Snow |
|---|---|---|---|---|---|---|---|
| 1777460644 | 16.67° C | 59% | 1029.7 hPa | 0 mm | - | - | - |
| 1777460523 | 16.67° C | 56% | 1029.8 hPa | 0 mm | - | - | - |
| 1777460403 | 16.67° C | 57% | 1029.6 hPa | 0 mm | - | - | - |
| 1777460284 | 16.67° C | 55% | 1029.7 hPa | 0 mm | - | - | - |
| 1777460163 | 16.67° C | 54% | 1029.7 hPa | 0 mm | - | - | - |
| 1777460043 | 16.67° C | 54% | 1029.7 hPa | 0 mm | - | - | - |
| 1777459923 | 16.67° C | 55% | 1029.6 hPa | 0 mm | - | - | - |
| 1777459803 | 16.67° C | 55% | 1029.6 hPa | 0 mm | - | - | - |
| 1777459684 | 16.67° C | 55% | 1029.5 hPa | 0 mm | - | - | - |
| 1777459564 | 16.67° C | 56% | 1029.6 hPa | 0 mm | - | - | - |
| 1777459445 | 16.67° C | 56% | 1029.6 hPa | 0 mm | - | - | - |
| 1777459324 | 16.67° C | 57% | 1029.5 hPa | 0 mm | - | - | - |
| 1777459203 | 16.67° C | 58% | 1029.5 hPa | 0 mm | - | - | - |
| 1777459084 | 16.67° C | 58% | 1029.5 hPa | 0 mm | - | - | - |
| 1777458963 | 16.67° C | 56% | 1029.5 hPa | 0 mm | - | - | - |
| 1777458843 | 16.67° C | 57% | 1029.6 hPa | 0 mm | - | - | - |
| 1777458724 | 16.67° C | 58% | 1029.5 hPa | 0 mm | - | - | - |
| 1777458604 | 16.67° C | 58% | 1029.6 hPa | 0 mm | - | - | - |
| 1777458485 | 16.67° C | 55% | 1029.6 hPa | 0 mm | - | - | - |
| 1777458364 | 16.67° C | 55% | 1029.5 hPa | 0 mm | - | - | - |
| 1777458244 | 16.67° C | 57% | 1029.5 hPa | 0 mm | - | - | - |
| 1777458125 | 16.11° C | 56% | 1029.6 hPa | 0 mm | - | - | - |
| 1777458003 | 16.11° C | 55% | 1029.5 hPa | 0 mm | - | - | - |
| 1777457883 | 16.11° C | 57% | 1029.6 hPa | 0 mm | - | - | - |
| 1777457763 | 16.11° C | 57% | 1029.7 hPa | 0 mm | - | - | - |
* Rain latest hour (hover to see other rain measurements)
** Current wind speed in m/s (hover to see current wind gust speed)